ZHONGXING-6B

Last updated on Sat Jun 14 2025 00:02:44 GMT+0000 (Coordinated Universal Time)

1 31800U 07031A 25164.58864309 -.00000344 00000+0 00000+0 0 9994 2 31800 1.4448 86.1491 0002138 353.6390 147.7098 1.00270819 65732
UTC large
Height (km)
Speed (km/s)
/
Latitude / Longitude
Inclination (degrees)
Orbital Period (minutes)
Azimuth
Elevation
Range (km)
Doppler Factor

Next 0 passes for location: London (51.5072 / 0.1276)

Sorry there are no passes over London.